Home > Weather > Alajuela > Past weeks

Flag for Costa Rica Past Weather in Alajuela, Costa Rica — Yesterday and Last 2 Weeks

Now
68 °F

Passing clouds.


Feels Like: 68 °F
Forecast: 67 / 81 °F
Wind: 3 mph from Southwest

Location: Juan Santamaria

Current Time: Aug 28, 2016 at 3:06:56 AM

Latest Report: Aug 28, 2016 at 2:00 AM


Visibility: 4 mi

Pressure: 30.00 "Hg (26.84 "Hg at 955m altitude)

Humidity: 94%

Dew Point: 66 °F

Location of AlajuelaLocation

Past Weather in Alajuela — Graph

°F

Alajuela Temperature Yesterday

Maximum temperature yesterday: 81 °F (at 11:00 AM)
Minimum temperature yesterday: 68 °F (at 12:00 AM)
Average temperature yesterday: 73 °F

High & Low Weather Summary for the Past Weeks

 TemperatureHumidityPressure
High86 °F (Aug 18, 1:00 PM)94% (Aug 13, 8:00 PM)30.08 "Hg (Aug 13, 8:00 PM)
Low63 °F (Aug 26, 5:00 AM)39% (Aug 25, 9:00 AM)29.91 "Hg (Aug 20, 2:00 PM)
Average73 °F74%30.00 "Hg
* Reported Aug 13 2:00 AM — Aug 28 2:00 AM, Alajuela, Weather by CustomWeather, © 2016

Note: Actual official high and low records may vary slightly from our data, if they occured in-between our weather recording intervals... More about our weather records

Advertising

Alajuela Weather History for the Previous 24 Hours

Scroll right to see more
 ConditionsComfort  
Time TempWeatherWind HumidityBarometerVisibility
2:00 AM
Sun, Aug 28
68 °FPassing clouds.3 mph94%30.00 "Hg4 mi
1:00 AM68 °FPassing clouds.2 mph94%30.02 "HgN/A
12:00 AM70 °FFog.2 mph88%30.02 "Hg3 mi
11:00 PM
Sat, Aug 27
70 °FClear.2 mph88%30.04 "Hg10 mi
10:00 PM70 °FClear.3 mph88%30.04 "Hg10 mi
9:00 PM70 °FPassing clouds.No wind94%30.03 "HgN/A
8:00 PM70 °FPartly cloudy.No wind94%30.01 "HgN/A
7:00 PM72 °FPassing clouds.2 mph83%29.97 "HgN/A
6:00 PM70 °FDrizzle. Fog.5 mph88%29.95 "HgN/A
5:00 PM72 °FThunderstorms. Broken clouds.3 mph94%29.98 "HgN/A
4:00 PM73 °FScattered showers. Broken clouds.6 mph83%29.96 "HgN/A
3:00 PM79 °FThundershowers. Broken clouds.12 mph70%29.95 "HgN/A
2:00 PM81 °FPartly sunny.12 mph66%29.96 "HgN/A
1:00 PM81 °FPartly sunny.10 mph66%29.98 "HgN/A
12:00 PM81 °FScattered clouds.10 mph66%30.01 "HgN/A
11:00 AM81 °FScattered clouds.9 mph58%30.04 "HgN/A
10:00 AM79 °FScattered clouds.9 mph65%30.05 "HgN/A
9:00 AM77 °FScattered clouds.7 mph69%30.06 "HgN/A
8:00 AM77 °FSunny.5 mph69%30.05 "Hg10 mi
7:00 AM72 °FSunny.5 mph78%30.03 "Hg10 mi
6:00 AM68 °FSunny.3 mph88%30.02 "Hg10 mi
5:00 AM68 °FClear.5 mph88%30.02 "Hg10 mi
4:00 AM70 °FPassing clouds.3 mph83%30.01 "HgN/A
3:00 AM70 °FPartly cloudy.No wind83%30.01 "HgN/A
Weather by CustomWeather, © 2016

See weather overviewHow to use our weather pages